STARLINK-33933, 63784

Orbit data source: Space-Track

STARLINK-33933, 63784 is a payload satellite owned by SpaceX/Seattle (US) in LEO that was launched on Fri, 02 May 2025 UTC via an FALCON 9 launch vehicle from the Air Force Eastern Test Range (AFETR). Payload-class satellites include a variety of spacecraft equipped with specific instruments for various scientific and technological missions. These include communications satellites like Starlink; space stations such as the ISS; scientific satellites like the Hubble; Earth observation satellites from companies like Planet Labs, Umbra, and HawkEye 360; GPS; miniature CubeSats for education and research; and military/defense satellites.

Loading next visibility...
Identifier
63784, 2025-091K
Orbit
LEO
Country
Flag of USUS
Related business
Manufacturer
SpaceX/Seattle
Mission
Operational Commercial Communications
Bus & Motor
STARLINK V2MO, Unknown motor
Mass
575 kg wet, ~530 kg dry
Launch date (UTC)
2025-05-02 (1 year ago)
Launch vehicle
FALCON 9
Launch site
Air Force Eastern Test Range (AFETR)
Object type
Payload
Rocket body
Debris
Shape & HBR
Box + 2 Pan, 17.7 m
Radar Cross Section
36.964 m², Large (>1 m²)

Expand to show TLE details & history
Last TLE update: 1 day ago

TLE from 1 day ago
0 STARLINK-33933
1 63784U 25091K   26170.50684806  .00010286  00000-0  38268-3 0  9995
2 63784  43.0027 190.5816 0001472 272.5140  87.5544 15.27590715 64668
Epoch: 2026-06-19T12:09Z
TLE epoch observation values (Epoch: 2026-06-19T12:09:51.672Z)
Latitude
0.00004°
Longitude
100.38151°
Altitude
482.75 km
Speed
7.626 km/s
True Right ascension
12h 42m 19s
True Declination
0° 00' 00"
Sunlit
Object was in daylight at epoch
Visualization orbit readout
Latitude
Unknown
Longitude
Unknown
Altitude
Unknown
Speed
Unknown
Apparent Right ascension
Unknown
Apparent Declination
Unknown
Sunlit
N/A
Visualization observer readout
Local Sidereal Time
08:33:26
Azimuth
Unknown
Elevation
Unknown
Doppler factor
Unknown
Orbital elements
Apogee altitude
485.972 km
Perigee altitude
483.951 km
Semi-major axis
6,863.099 km
Eccentricity
0.00015
Inclination
43.0027°
RAAN
190.5816°
Arg. of periapsis
272.514°
True anomaly
87.57125°
Mean anomaly
87.5544°
Eccentric anomaly
87.56283°
Mean motion
3.81736 °/min
Orbital period
94.31 mins
BSTAR
0.00038268
Loading maneuver chart data...
Computing Atmospheric mass density...
Loading historical data...
Loading historical data...
Loading historical data...
Loading historical data...
Loading historical data...
Loading historical data...
Loading historical data...

Documentation

Showing up to 5 results
|